PRIVATE WETTERSTATION BILLIGHEIM-ALLFELD                       ZURCK
Wetterdaten: Sonntag, 23.11.2014
Datum Zeit Temp. A. Temp. A. min Temp. A. max Feuchte A. Luftdruck Regen Wind Richtung Richtung Sonnenschein ET Solar Taupunkt Windchill Windben Empfang
23.11.2014 00:00 4,4 C 4,4 C 4,4 C 91 % 1022,4 hPa 0,0 l/m 0,0 km/h (0 Bft) NO 45 0 min 0,000 mm 0 W/m 3,1 C 4,4 C 3,2 km/h (1 Bft) 100 %
23.11.2014 00:10 4,4 C 4,4 C 4,4 C 91 % 1022,5 hPa 0,0 l/m 0,0 km/h (0 Bft) NO 45 0 min 0,000 mm 0 W/m 3,1 C 4,4 C 1,6 km/h (1 Bft) 100 %
23.11.2014 00:20 4,4 C 4,4 C 4,4 C 91 % 1022,4 hPa 0,0 l/m 0,0 km/h (0 Bft) NO 45 0 min 0,000 mm 0 W/m 3,1 C 4,4 C 3,2 km/h (1 Bft) 100 %
23.11.2014 00:30 4,4 C 4,4 C 4,4 C 91 % 1022,4 hPa 0,0 l/m 0,0 km/h (0 Bft) NO 45 0 min 0,000 mm 0 W/m 3,1 C 4,4 C 1,6 km/h (1 Bft) 100 %
23.11.2014 00:40 4,4 C 4,4 C 4,4 C 91 % 1022,4 hPa 0,0 l/m 0,0 km/h (0 Bft) NO 45 0 min 0,000 mm 0 W/m 3,1 C 4,4 C 1,6 km/h (1 Bft) 100 %
23.11.2014 00:50 4,4 C 4,4 C 4,4 C 91 % 1022,3 hPa 0,0 l/m 0,0 km/h (0 Bft) NO 45 0 min 0,000 mm 0 W/m 3,1 C 4,4 C 1,6 km/h (1 Bft) 100 %
23.11.2014 01:00 4,4 C 4,4 C 4,4 C 91 % 1022,4 hPa 0,0 l/m 0,0 km/h (0 Bft) NO 45 0 min 0,000 mm 0 W/m 3,1 C 4,4 C 1,6 km/h (1 Bft) 100 %
23.11.2014 01:10 4,4 C 4,4 C 4,4 C 91 % 1022,4 hPa 0,0 l/m 0,0 km/h (0 Bft) NO 45 0 min 0,000 mm 0 W/m 3,1 C 4,4 C 1,6 km/h (1 Bft) 100 %
23.11.2014 01:20 4,4 C 4,3 C 4,4 C 91 % 1022,4 hPa 0,0 l/m 0,0 km/h (0 Bft) NO 45 0 min 0,000 mm 0 W/m 3,1 C 4,4 C 1,6 km/h (1 Bft) 100 %
23.11.2014 01:30 4,3 C 4,3 C 4,4 C 91 % 1022,4 hPa 0,0 l/m 0,0 km/h (0 Bft) NO 45 0 min 0,000 mm 0 W/m 3,0 C 4,3 C 1,6 km/h (1 Bft) 100 %
23.11.2014 01:40 4,3 C 4,3 C 4,4 C 91 % 1022,3 hPa 0,0 l/m 0,0 km/h (0 Bft) N 0 0 min 0,000 mm 0 W/m 3,0 C 4,3 C 0,0 km/h (0 Bft) 100 %
23.11.2014 01:50 4,3 C 4,3 C 4,3 C 91 % 1022,3 hPa 0,0 l/m 0,0 km/h (0 Bft) NO 45 0 min 0,000 mm 0 W/m 3,0 C 4,3 C 3,2 km/h (1 Bft) 100 %
23.11.2014 02:00 4,3 C 4,3 C 4,3 C 91 % 1022,4 hPa 0,0 l/m 0,0 km/h (0 Bft) NO 45 0 min 0,000 mm 0 W/m 3,0 C 4,3 C 1,6 km/h (1 Bft) 100 %
23.11.2014 02:10 4,3 C 4,3 C 4,3 C 91 % 1022,4 hPa 0,0 l/m 0,0 km/h (0 Bft) NO 45 0 min 0,000 mm 0 W/m 3,0 C 4,3 C 3,2 km/h (1 Bft) 100 %
23.11.2014 02:20 4,3 C 4,3 C 4,3 C 91 % 1022,3 hPa 0,0 l/m 0,0 km/h (0 Bft) NO 45 0 min 0,000 mm 0 W/m 3,0 C 4,3 C 4,8 km/h (1 Bft) 100 %
23.11.2014 02:30 4,3 C 4,3 C 4,3 C 91 % 1022,2 hPa 0,0 l/m 0,0 km/h (0 Bft) N 0 0 min 0,000 mm 0 W/m 3,0 C 4,3 C 0,0 km/h (0 Bft) 100 %
23.11.2014 02:40 4,2 C 4,2 C 4,3 C 91 % 1022,1 hPa 0,0 l/m 0,0 km/h (0 Bft) NO 45 0 min 0,000 mm 0 W/m 2,9 C 4,2 C 1,6 km/h (1 Bft) 100 %
23.11.2014 02:50 4,2 C 4,2 C 4,2 C 91 % 1022,1 hPa 0,0 l/m 0,0 km/h (0 Bft) NO 45 0 min 0,000 mm 0 W/m 2,9 C 4,2 C 1,6 km/h (1 Bft) 100 %
23.11.2014 03:00 4,2 C 4,2 C 4,2 C 91 % 1021,9 hPa 0,0 l/m 0,0 km/h (0 Bft) NO 45 0 min 0,000 mm 0 W/m 2,9 C 4,2 C 1,6 km/h (1 Bft) 100 %
23.11.2014 03:10 4,2 C 4,1 C 4,2 C 91 % 1021,9 hPa 0,0 l/m 0,0 km/h (0 Bft) NO 45 0 min 0,000 mm 0 W/m 2,9 C 4,2 C 4,8 km/h (1 Bft) 100 %
23.11.2014 03:20 4,1 C 4,1 C 4,2 C 91 % 1021,8 hPa 0,0 l/m 0,0 km/h (0 Bft) NO 45 0 min 0,000 mm 0 W/m 2,8 C 4,1 C 1,6 km/h (1 Bft) 91 %
23.11.2014 03:30 4,1 C 4,1 C 4,2 C 91 % 1021,8 hPa 0,0 l/m 0,0 km/h (0 Bft) NO 45 0 min 0,000 mm 0 W/m 2,8 C 4,1 C 3,2 km/h (1 Bft) 100 %
23.11.2014 03:40 4,1 C 4,1 C 4,1 C 91 % 1021,7 hPa 0,0 l/m 0,0 km/h (0 Bft) NO 45 0 min 0,000 mm 0 W/m 2,8 C 4,1 C 3,2 km/h (1 Bft) 100 %
23.11.2014 03:50 4,1 C 4,1 C 4,1 C 91 % 1021,7 hPa 0,0 l/m 0,0 km/h (0 Bft) NO 45 0 min 0,000 mm 0 W/m 2,8 C 4,1 C 1,6 km/h (1 Bft) 100 %
23.11.2014 04:00 4,0 C 4,0 C 4,1 C 91 % 1021,7 hPa 0,0 l/m 0,0 km/h (0 Bft) NO 45 0 min 0,000 mm 0 W/m 2,7 C 4,0 C 3,2 km/h (1 Bft) 100 %
23.11.2014 04:10 3,9 C 3,9 C 4,0 C 91 % 1021,7 hPa 0,0 l/m 0,0 km/h (0 Bft) NO 45 0 min 0,000 mm 0 W/m 2,6 C 3,9 C 1,6 km/h (1 Bft) 100 %
23.11.2014 04:20 3,9 C 3,9 C 3,9 C 91 % 1021,9 hPa 0,0 l/m 0,0 km/h (0 Bft) NO 45 0 min 0,000 mm 0 W/m 2,6 C 3,9 C 1,6 km/h (1 Bft) 100 %
23.11.2014 04:30 3,9 C 3,9 C 3,9 C 91 % 1022,0 hPa 0,0 l/m 0,0 km/h (0 Bft) N 360 0 min 0,000 mm 0 W/m 2,6 C 3,9 C 3,2 km/h (1 Bft) 100 %
23.11.2014 04:40 3,9 C 3,9 C 3,9 C 91 % 1022,2 hPa 0,0 l/m 0,0 km/h (0 Bft) N 360 0 min 0,000 mm 0 W/m 2,6 C 3,9 C 3,2 km/h (1 Bft) 100 %
23.11.2014 04:50 3,9 C 3,9 C 3,9 C 91 % 1022,3 hPa 0,0 l/m 0,0 km/h (0 Bft) N 360 0 min 0,000 mm 0 W/m 2,6 C 3,9 C 1,6 km/h (1 Bft) 100 %
23.11.2014 05:00 3,9 C 3,9 C 3,9 C 91 % 1022,3 hPa 0,0 l/m 0,0 km/h (0 Bft) N 360 0 min 0,000 mm 0 W/m 2,6 C 3,9 C 3,2 km/h (1 Bft) 100 %
23.11.2014 05:10 3,8 C 3,8 C 3,9 C 91 % 1022,2 hPa 0,0 l/m 0,0 km/h (0 Bft) N-NO 22 0 min 0,000 mm 0 W/m 2,5 C 3,8 C 4,8 km/h (1 Bft) 89 %
23.11.2014 05:20 3,8 C 3,8 C 3,8 C 91 % 1022,0 hPa 0,0 l/m 0,0 km/h (0 Bft) N-NO 22 0 min 0,000 mm 0 W/m 2,5 C 3,8 C 3,2 km/h (1 Bft) 100 %
23.11.2014 05:30 3,7 C 3,7 C 3,8 C 91 % 1022,0 hPa 0,0 l/m 0,0 km/h (0 Bft) N-NO 22 0 min 0,000 mm 0 W/m 2,4 C 3,7 C 3,2 km/h (1 Bft) 100 %
23.11.2014 05:40 3,6 C 3,6 C 3,7 C 91 % 1022,1 hPa 0,0 l/m 0,0 km/h (0 Bft) N-NO 22 0 min 0,000 mm 0 W/m 2,3 C 3,6 C 1,6 km/h (1 Bft) 100 %
23.11.2014 05:50 3,6 C 3,6 C 3,6 C 91 % 1022,0 hPa 0,0 l/m 0,0 km/h (0 Bft) N-NO 22 0 min 0,000 mm 0 W/m 2,3 C 3,6 C 4,8 km/h (1 Bft) 100 %
23.11.2014 06:00 3,6 C 3,6 C 3,6 C 91 % 1022,1 hPa 0,0 l/m 0,0 km/h (0 Bft) N-NO 22 0 min 0,000 mm 0 W/m 2,3 C 3,6 C 3,2 km/h (1 Bft) 100 %
23.11.2014 06:10 3,5 C 3,5 C 3,6 C 91 % 1022,1 hPa 0,0 l/m 0,0 km/h (0 Bft) N-NO 22 0 min 0,000 mm 0 W/m 2,2 C 3,5 C 4,8 km/h (1 Bft) 100 %
23.11.2014 06:20 3,4 C 3,4 C 3,5 C 91 % 1022,1 hPa 0,0 l/m 0,0 km/h (0 Bft) N-NO 22 0 min 0,000 mm 0 W/m 2,1 C 3,4 C 3,2 km/h (1 Bft) 100 %
23.11.2014 06:30 3,3 C 3,3 C 3,4 C 91 % 1022,0 hPa 0,0 l/m 0,0 km/h (0 Bft) N-NO 22 0 min 0,000 mm 0 W/m 2,0 C 3,3 C 4,8 km/h (1 Bft) 100 %
23.11.2014 06:40 3,2 C 3,2 C 3,3 C 91 % 1022,0 hPa 0,0 l/m 0,0 km/h (0 Bft) N-NO 22 0 min 0,000 mm 0 W/m 1,9 C 3,2 C 4,8 km/h (1 Bft) 99 %
23.11.2014 06:50 3,2 C 3,2 C 3,3 C 91 % 1022,3 hPa 0,0 l/m 0,0 km/h (0 Bft) N-NO 22 0 min 0,000 mm 0 W/m 1,9 C 3,2 C 1,6 km/h (1 Bft) 100 %
23.11.2014 07:00 3,2 C 3,2 C 3,2 C 91 % 1022,3 hPa 0,0 l/m 0,0 km/h (0 Bft) N-NO 22 0 min 0,000 mm 0 W/m 1,9 C 3,2 C 3,2 km/h (1 Bft) 89 %
23.11.2014 07:10 3,2 C 3,2 C 3,2 C 91 % 1022,3 hPa 0,0 l/m 0,0 km/h (0 Bft) N-NO 22 0 min 0,000 mm 0 W/m 1,9 C 3,2 C 3,2 km/h (1 Bft) 100 %
23.11.2014 07:20 3,2 C 3,1 C 3,2 C 91 % 1022,4 hPa 0,0 l/m 0,0 km/h (0 Bft) N-NO 22 0 min 0,000 mm 0 W/m 1,9 C 3,2 C 1,6 km/h (1 Bft) 100 %
23.11.2014 07:30 3,1 C 3,1 C 3,2 C 91 % 1022,6 hPa 0,0 l/m 0,0 km/h (0 Bft) N 0 0 min 0,000 mm 0 W/m 1,8 C 3,1 C 0,0 km/h (0 Bft) 100 %
23.11.2014 07:40 3,1 C 3,1 C 3,1 C 91 % 1022,7 hPa 0,0 l/m 0,0 km/h (0 Bft) N 360 0 min 0,000 mm 0 W/m 1,8 C 3,1 C 3,2 km/h (1 Bft) 100 %
23.11.2014 07:50 3,1 C 3,1 C 3,1 C 91 % 1022,8 hPa 0,0 l/m 0,0 km/h (0 Bft) N 360 0 min 0,000 mm 0 W/m 1,8 C 3,1 C 3,2 km/h (1 Bft) 100 %
23.11.2014 08:00 3,1 C 3,0 C 3,1 C 91 % 1022,8 hPa 0,0 l/m 0,0 km/h (0 Bft) N 0 0 min 0,000 mm 9 W/m 1,8 C 3,1 C 0,0 km/h (0 Bft) 100 %
23.11.2014 08:10 3,0 C 3,0 C 3,1 C 91 % 1022,8 hPa 0,0 l/m 0,0 km/h (0 Bft) N 360 0 min 0,000 mm 12 W/m 1,7 C 3,0 C 3,2 km/h (1 Bft) 98 %
23.11.2014 08:20 3,0 C 3,0 C 3,1 C 91 % 1022,8 hPa 0,0 l/m 0,0 km/h (0 Bft) O-SO 112 0 min 0,000 mm 19 W/m 1,7 C 3,0 C 3,2 km/h (1 Bft) 99 %
23.11.2014 08:30 3,0 C 3,0 C 3,1 C 91 % 1022,8 hPa 0,0 l/m 0,0 km/h (0 Bft) O-SO 112 0 min 0,000 mm 25 W/m 1,7 C 3,0 C 1,6 km/h (1 Bft) 97 %
23.11.2014 08:40 3,1 C 3,0 C 3,1 C 91 % 1022,9 hPa 0,0 l/m 0,0 km/h (0 Bft) O-SO 112 0 min 0,000 mm 25 W/m 1,8 C 3,1 C 3,2 km/h (1 Bft) 97 %
23.11.2014 08:50 3,1 C 3,0 C 3,1 C 91 % 1022,9 hPa 0,0 l/m 0,0 km/h (0 Bft) N 0 0 min 0,000 mm 37 W/m 1,8 C 3,1 C 0,0 km/h (0 Bft) 89 %
23.11.2014 09:00 3,1 C 3,1 C 3,2 C 91 % 1023,0 hPa 0,0 l/m 0,0 km/h (0 Bft) O-SO 112 0 min 0,000 mm 56 W/m 1,8 C 3,1 C 4,8 km/h (1 Bft) 97 %
23.11.2014 09:10 3,2 C 3,1 C 3,2 C 91 % 1023,0 hPa 0,0 l/m 0,0 km/h (0 Bft) O-NO 67 0 min 0,000 mm 72 W/m 1,9 C 3,2 C 1,6 km/h (1 Bft) 98 %
23.11.2014 09:20 3,3 C 3,2 C 3,4 C 91 % 1023,0 hPa 0,0 l/m 0,0 km/h (0 Bft) N 0 0 min 0,000 mm 79 W/m 2,0 C 3,3 C 0,0 km/h (0 Bft) 97 %
23.11.2014 09:30 3,4 C 3,4 C 3,4 C 91 % 1022,8 hPa 0,0 l/m 0,0 km/h (0 Bft) O-NO 67 0 min 0,000 mm 90 W/m 2,1 C 3,4 C 1,6 km/h (1 Bft) 98 %
23.11.2014 09:40 3,6 C 3,4 C 3,6 C 91 % 1023,0 hPa 0,0 l/m 0,0 km/h (0 Bft) O-NO 67 0 min 0,000 mm 98 W/m 2,3 C 3,6 C 4,8 km/h (1 Bft) 97 %
23.11.2014 09:50 3,7 C 3,6 C 3,7 C 91 % 1023,0 hPa 0,0 l/m 0,0 km/h (0 Bft) NO 45 0 min 0,000 mm 113 W/m 2,4 C 3,7 C 1,6 km/h (1 Bft) 96 %
23.11.2014 10:00 3,8 C 3,7 C 3,8 C 91 % 1023,1 hPa 0,0 l/m 0,0 km/h (0 Bft) O-NO 67 0 min 0,025 mm 148 W/m 2,5 C 3,8 C 3,2 km/h (1 Bft) 98 %
23.11.2014 10:10 3,9 C 3,8 C 3,9 C 91 % 1023,1 hPa 0,0 l/m 0,0 km/h (0 Bft) O-NO 67 0 min 0,000 mm 130 W/m 2,6 C 3,9 C 4,8 km/h (1 Bft) 97 %
23.11.2014 10:20 3,9 C 3,9 C 3,9 C 91 % 1023,0 hPa 0,0 l/m 0,0 km/h (0 Bft) NO 45 0 min 0,000 mm 141 W/m 2,6 C 3,9 C 3,2 km/h (1 Bft) 98 %
23.11.2014 10:30 4,1 C 4,0 C 4,1 C 91 % 1022,9 hPa 0,0 l/m 0,0 km/h (0 Bft) N 360 10 min 0,000 mm 169 W/m 2,8 C 4,1 C 4,8 km/h (1 Bft) 97 %
23.11.2014 10:40 4,3 C 4,1 C 4,4 C 91 % 1023,1 hPa 0,0 l/m 0,0 km/h (0 Bft) N 360 10 min 0,000 mm 185 W/m 3,0 C 4,3 C 4,8 km/h (1 Bft) 88 %
23.11.2014 10:50 4,4 C 4,3 C 4,4 C 91 % 1023,1 hPa 0,0 l/m 0,0 km/h (0 Bft) O-NO 67 10 min 0,000 mm 248 W/m 3,1 C 4,4 C 3,2 km/h (1 Bft) 97 %
23.11.2014 11:00 4,6 C 4,4 C 4,6 C 91 % 1023,1 hPa 0,0 l/m 0,0 km/h (0 Bft) O-NO 67 10 min 0,051 mm 262 W/m 3,3 C 4,6 C 3,2 km/h (1 Bft) 96 %
23.11.2014 11:10 4,7 C 4,6 C 4,7 C 91 % 1023,0 hPa 0,0 l/m 0,0 km/h (0 Bft) N 360 10 min 0,000 mm 214 W/m 3,4 C 4,7 C 3,2 km/h (1 Bft) 98 %
23.11.2014 11:20 4,9 C 4,6 C 4,9 C 91 % 1022,7 hPa 0,0 l/m 0,0 km/h (0 Bft) N-NO 22 10 min 0,000 mm 315 W/m 3,6 C 4,9 C 4,8 km/h (1 Bft) 97 %
23.11.2014 11:30 5,3 C 4,9 C 5,3 C 91 % 1022,8 hPa 0,0 l/m 0,0 km/h (0 Bft) NO 45 10 min 0,000 mm 315 W/m 4,0 C 5,3 C 3,2 km/h (1 Bft) 98 %
23.11.2014 11:40 5,5 C 5,3 C 5,5 C 91 % 1022,4 hPa 0,0 l/m 0,0 km/h (0 Bft) NO 45 10 min 0,000 mm 306 W/m 4,2 C 5,5 C 3,2 km/h (1 Bft) 97 %
23.11.2014 11:50 5,7 C 5,5 C 5,7 C 92 % 1022,2 hPa 0,0 l/m 0,0 km/h (0 Bft) NO 45 10 min 0,000 mm 287 W/m 4,5 C 5,7 C 3,2 km/h (1 Bft) 99 %
23.11.2014 12:00 6,1 C 5,7 C 6,1 C 92 % 1022,1 hPa 0,0 l/m 0,0 km/h (0 Bft) NO 45 10 min 0,102 mm 306 W/m 4,9 C 6,1 C 1,6 km/h (1 Bft) 98 %
23.11.2014 12:10 6,7 C 6,1 C 6,7 C 92 % 1022,3 hPa 0,0 l/m 1,6 km/h (1 Bft) N-NW 337 10 min 0,000 mm 306 W/m 5,5 C 6,7 C 4,8 km/h (1 Bft) 99 %
23.11.2014 12:20 6,9 C 6,8 C 7,0 C 92 % 1022,2 hPa 0,0 l/m 0,0 km/h (0 Bft) N-NW 337 10 min 0,000 mm 288 W/m 5,7 C 6,9 C 1,6 km/h (1 Bft) 99 %
23.11.2014 12:30 7,1 C 6,9 C 7,1 C 92 % 1022,0 hPa 0,0 l/m 0,0 km/h (0 Bft) N 360 10 min 0,000 mm 302 W/m 5,9 C 7,1 C 3,2 km/h (1 Bft) 97 %
23.11.2014 12:40 7,4 C 7,2 C 7,4 C 91 % 1021,6 hPa 0,0 l/m 0,0 km/h (0 Bft) N-NO 22 10 min 0,000 mm 304 W/m 6,0 C 7,4 C 4,8 km/h (1 Bft) 98 %
23.11.2014 12:50 7,7 C 7,2 C 7,7 C 90 % 1021,5 hPa 0,0 l/m 0,0 km/h (0 Bft) N-NO 32 10 min 0,000 mm 234 W/m 6,2 C 7,7 C 1,6 km/h (1 Bft) 100 %
23.11.2014 13:00 7,9 C 7,7 C 7,9 C 90 % 1021,2 hPa 0,0 l/m 0,0 km/h (0 Bft) NO 34 0 min 0,101 mm 104 W/m 6,4 C 7,9 C 0,0 km/h (0 Bft) 100 %
23.11.2014 13:10 8,4 C 7,9 C 8,4 C 89 % 1021,2 hPa 0,0 l/m 0,1 km/h (0 Bft) N 355 10 min 0,000 mm 155 W/m 6,7 C 8,4 C 3,2 km/h (1 Bft) 91 %
23.11.2014 13:20 8,7 C 8,4 C 8,7 C 88 % 1021,3 hPa 0,0 l/m 0,0 km/h (0 Bft) N 10 10 min 0,000 mm 227 W/m 6,8 C 8,7 C 1,6 km/h (1 Bft) 100 %
23.11.2014 13:30 8,8 C 8,6 C 8,8 C 89 % 1021,1 hPa 0,0 l/m 0,0 km/h (0 Bft) N-NO 12 10 min 0,000 mm 206 W/m 7,1 C 8,8 C 1,6 km/h (1 Bft) 99 %
23.11.2014 13:40 9,1 C 8,8 C 9,1 C 87 % 1020,7 hPa 0,0 l/m 0,1 km/h (0 Bft) N-NO 31 10 min 0,000 mm 155 W/m 7,1 C 9,1 C 3,2 km/h (1 Bft) 100 %
23.11.2014 13:50 9,2 C 9,1 C 9,2 C 87 % 1020,6 hPa 0,0 l/m 0,0 km/h (0 Bft) N-NO 20 10 min 0,000 mm 236 W/m 7,2 C 9,2 C 1,6 km/h (1 Bft) 100 %
23.11.2014 14:00 9,5 C 9,2 C 9,5 C 87 % 1020,7 hPa 0,0 l/m 0,1 km/h (0 Bft) N-NO 24 0 min 0,077 mm 149 W/m 7,4 C 9,5 C 4,8 km/h (1 Bft) 100 %
23.11.2014 14:10 9,9 C 9,5 C 9,9 C 86 % 1020,8 hPa 0,0 l/m 0,2 km/h (0 Bft) N-NW 329 0 min 0,000 mm 77 W/m 7,7 C 9,9 C 3,2 km/h (1 Bft) 100 %
23.11.2014 14:20 10,1 C 9,9 C 10,1 C 85 % 1020,5 hPa 0,0 l/m 0,0 km/h (0 Bft) N-NO 21 0 min 0,000 mm 120 W/m 7,7 C 10,1 C 1,6 km/h (1 Bft) 100 %
23.11.2014 14:30 10,2 C 10,1 C 10,2 C 86 % 1020,6 hPa 0,0 l/m 0,0 km/h (0 Bft) N-NW 334 0 min 0,000 mm 62 W/m 8,0 C 10,2 C 0,0 km/h (0 Bft) 100 %
23.11.2014 14:40 10,3 C 10,2 C 10,3 C 85 % 1020,5 hPa 0,0 l/m 0,0 km/h (0 Bft) N 355 0 min 0,000 mm 53 W/m 7,9 C 10,3 C 1,6 km/h (1 Bft) 100 %
23.11.2014 14:50 10,4 C 10,3 C 10,4 C 84 % 1020,3 hPa 0,0 l/m 0,0 km/h (0 Bft) N-NO 22 0 min 0,000 mm 58 W/m 7,8 C 10,4 C 1,6 km/h (1 Bft) 100 %
23.11.2014 15:00 10,6 C 10,4 C 10,6 C 84 % 1020,3 hPa 0,0 l/m 0,0 km/h (0 Bft) N-NO 22 0 min 0,050 mm 39 W/m 8,0 C 10,6 C 1,6 km/h (1 Bft) 100 %
23.11.2014 15:10 10,7 C 10,6 C 10,7 C 83 % 1020,3 hPa 0,0 l/m 0,0 km/h (0 Bft) N 355 0 min 0,000 mm 26 W/m 7,9 C 10,7 C 1,6 km/h (1 Bft) 100 %
23.11.2014 15:20 10,6 C 10,6 C 10,7 C 84 % 1020,2 hPa 0,0 l/m 0,0 km/h (0 Bft) N 355 0 min 0,000 mm 26 W/m 8,0 C 10,6 C 1,6 km/h (1 Bft) 99 %
23.11.2014 15:30 10,4 C 10,4 C 10,6 C 84 % 1020,3 hPa 0,0 l/m 0,0 km/h (0 Bft) N 355 0 min 0,000 mm 21 W/m 7,8 C 10,4 C 1,6 km/h (1 Bft) 98 %
23.11.2014 15:40 10,1 C 10,1 C 10,4 C 85 % 1020,0 hPa 0,0 l/m 0,1 km/h (0 Bft) N 355 0 min 0,000 mm 21 W/m 7,7 C 10,1 C 3,2 km/h (1 Bft) 100 %
23.11.2014 15:50 9,9 C 9,9 C 10,1 C 86 % 1019,8 hPa 0,0 l/m 0,0 km/h (0 Bft) N 355 0 min 0,000 mm 21 W/m 7,7 C 9,9 C 1,6 km/h (1 Bft) 100 %
23.11.2014 16:00 9,6 C 9,6 C 9,9 C 86 % 1019,8 hPa 0,0 l/m 0,0 km/h (0 Bft) N 355 0 min 0,026 mm 19 W/m 7,4 C 9,6 C 0,0 km/h (0 Bft) 100 %
23.11.2014 16:10 9,4 C 9,4 C 9,6 C 87 % 1020,0 hPa 0,0 l/m 0,0 km/h (0 Bft) N 355 0 min 0,000 mm 12 W/m 7,3 C 9,4 C 0,0 km/h (0 Bft) 100 %
23.11.2014 16:20 9,2 C 9,2 C 9,4 C 86 % 1019,9 hPa 0,0 l/m 0,3 km/h (0 Bft) N-NO 13 0 min 0,000 mm 7 W/m 7,0 C 9,2 C 4,8 km/h (1 Bft) 100 %
23.11.2014 16:30 8,9 C 8,9 C 9,2 C 86 % 1020,0 hPa 0,0 l/m 0,1 km/h (0 Bft) N-NO 13 0 min 0,000 mm 0 W/m 6,7 C 8,9 C 1,6 km/h (1 Bft) 99 %
23.11.2014 16:40 8,6 C 8,6 C 8,9 C 86 % 1019,8 hPa 0,0 l/m 0,2 km/h (0 Bft) N-NO 14 0 min 0,000 mm 0 W/m 6,4 C 8,6 C 3,2 km/h (1 Bft) 100 %
23.11.2014 16:50 8,2 C 8,2 C 8,6 C 87 % 1019,7 hPa 0,0 l/m 0,0 km/h (0 Bft) N-NO 13 0 min 0,000 mm 0 W/m 6,2 C 8,2 C 1,6 km/h (1 Bft) 100 %
23.11.2014 17:01 7,8 C 7,8 C 8,2 C 88 % 1019,5 hPa 0,0 l/m 0,5 km/h (0 Bft) W-NW 294 0 min 0,000 mm 0 W/m 5,9 C 7,8 C 8,0 km/h (2 Bft) 100 %
23.11.2014 17:11 7,6 C 7,6 C 7,8 C 89 % 1019,5 hPa 0,0 l/m 0,7 km/h (0 Bft) W-NW 296 0 min 0,000 mm 0 W/m 5,9 C 7,6 C 4,8 km/h (1 Bft) 100 %
23.11.2014 17:20 7,4 C 7,4 C 7,6 C 89 % 1019,5 hPa 0,0 l/m 0,6 km/h (0 Bft) W-NW 292 0 min 0,000 mm 0 W/m 5,7 C 7,4 C 8,0 km/h (2 Bft) 100 %
23.11.2014 17:30 7,3 C 7,3 C 7,4 C 89 % 1019,4 hPa 0,0 l/m 0,2 km/h (0 Bft) N 351 0 min 0,000 mm 0 W/m 5,6 C 7,3 C 3,2 km/h (1 Bft) 99 %
23.11.2014 17:40 7,1 C 7,1 C 7,3 C 89 % 1019,4 hPa 0,0 l/m 0,0 km/h (0 Bft) NO 34 0 min 0,000 mm 0 W/m 5,4 C 7,1 C 1,6 km/h (1 Bft) 98 %
23.11.2014 17:50 6,9 C 6,9 C 7,1 C 90 % 1019,4 hPa 0,0 l/m 0,7 km/h (0 Bft) NW 322 0 min 0,000 mm 0 W/m 5,4 C 6,9 C 3,2 km/h (1 Bft) 100 %
23.11.2014 18:00 6,7 C 6,7 C 6,9 C 90 % 1019,5 hPa 0,0 l/m 0,0 km/h (0 Bft) NW 322 0 min 0,000 mm 0 W/m 5,2 C 6,7 C 1,6 km/h (1 Bft) 99 %
23.11.2014 18:10 6,5 C 6,5 C 6,7 C 90 % 1019,5 hPa 0,0 l/m 0,0 km/h (0 Bft) NW 322 0 min 0,000 mm 0 W/m 5,0 C 6,5 C 0,0 km/h (0 Bft) 99 %
23.11.2014 18:20 6,3 C 6,3 C 6,5 C 90 % 1019,5 hPa 0,0 l/m 0,0 km/h (0 Bft) NW 325 0 min 0,000 mm 0 W/m 4,8 C 6,3 C 1,6 km/h (1 Bft) 100 %
23.11.2014 18:30 6,1 C 6,1 C 6,3 C 91 % 1019,5 hPa 0,0 l/m 0,0 km/h (0 Bft) NW 325 0 min 0,000 mm 0 W/m 4,7 C 6,1 C 1,6 km/h (1 Bft) 100 %
23.11.2014 18:40 5,8 C 5,8 C 6,1 C 91 % 1019,6 hPa 0,0 l/m 0,0 km/h (0 Bft) NW 325 0 min 0,000 mm 0 W/m 4,4 C 5,8 C 1,6 km/h (1 Bft) 100 %
23.11.2014 18:50 5,7 C 5,7 C 5,8 C 91 % 1019,7 hPa 0,0 l/m 0,2 km/h (0 Bft) NW 325 0 min 0,000 mm 0 W/m 4,3 C 5,7 C 3,2 km/h (1 Bft) 100 %
23.11.2014 19:00 5,5 C 5,5 C 5,7 C 91 % 1019,7 hPa 0,0 l/m 0,0 km/h (0 Bft) NW 325 0 min 0,000 mm 0 W/m 4,2 C 5,5 C 1,6 km/h (1 Bft) 100 %
23.11.2014 19:10 5,3 C 5,3 C 5,5 C 91 % 1019,6 hPa 0,0 l/m 0,1 km/h (0 Bft) NW 325 0 min 0,000 mm 0 W/m 4,0 C 5,3 C 1,6 km/h (1 Bft) 100 %
23.11.2014 19:20 5,2 C 5,2 C 5,3 C 91 % 1019,7 hPa 0,0 l/m 0,0 km/h (0 Bft) NW 325 0 min 0,000 mm 0 W/m 3,9 C 5,2 C 0,0 km/h (0 Bft) 91 %
23.11.2014 19:30 5,1 C 5,1 C 5,2 C 91 % 1019,8 hPa 0,0 l/m 0,2 km/h (0 Bft) NW 326 0 min 0,000 mm 0 W/m 3,8 C 5,1 C 3,2 km/h (1 Bft) 100 %
23.11.2014 19:40 5,0 C 5,0 C 5,1 C 92 % 1019,7 hPa 0,0 l/m 0,0 km/h (0 Bft) NW 326 0 min 0,000 mm 0 W/m 3,8 C 5,0 C 0,0 km/h (0 Bft) 100 %
23.11.2014 19:50 4,9 C 4,9 C 5,0 C 92 % 1019,7 hPa 0,0 l/m 0,6 km/h (0 Bft) NW 326 0 min 0,000 mm 0 W/m 3,7 C 4,9 C 3,2 km/h (1 Bft) 99 %
23.11.2014 20:00 4,8 C 4,8 C 4,9 C 92 % 1019,7 hPa 0,0 l/m 0,0 km/h (0 Bft) NW 326 0 min 0,000 mm 0 W/m 3,6 C 4,8 C 0,0 km/h (0 Bft) 100 %
23.11.2014 20:10 4,7 C 4,7 C 4,8 C 92 % 1019,7 hPa 0,0 l/m 0,3 km/h (0 Bft) NW 326 0 min 0,000 mm 0 W/m 3,5 C 4,7 C 1,6 km/h (1 Bft) 91 %
23.11.2014 20:20 4,6 C 4,6 C 4,7 C 92 % 1019,8 hPa 0,0 l/m 0,0 km/h (0 Bft) NW 326 0 min 0,000 mm 0 W/m 3,4 C 4,6 C 1,6 km/h (1 Bft) 100 %
23.11.2014 20:30 4,5 C 4,5 C 4,6 C 92 % 1019,7 hPa 0,0 l/m 0,0 km/h (0 Bft) NW 326 0 min 0,000 mm 0 W/m 3,3 C 4,5 C 1,6 km/h (1 Bft) 100 %
23.11.2014 20:40 4,4 C 4,4 C 4,5 C 92 % 1019,7 hPa 0,0 l/m 0,0 km/h (0 Bft) NW 326 0 min 0,000 mm 0 W/m 3,2 C 4,4 C 1,6 km/h (1 Bft) 99 %
23.11.2014 20:50 4,3 C 4,3 C 4,4 C 92 % 1019,8 hPa 0,0 l/m 0,1 km/h (0 Bft) NW 326 0 min 0,000 mm 0 W/m 3,1 C 4,3 C 1,6 km/h (1 Bft) 99 %
23.11.2014 21:00 4,2 C 4,2 C 4,3 C 92 % 1019,8 hPa 0,0 l/m 0,0 km/h (0 Bft) NW 326 0 min 0,000 mm 0 W/m 3,0 C 4,2 C 1,6 km/h (1 Bft) 100 %
23.11.2014 21:10 4,2 C 4,2 C 4,2 C 92 % 1019,7 hPa 0,0 l/m 0,6 km/h (0 Bft) NW 325 0 min 0,000 mm 0 W/m 3,0 C 4,2 C 4,8 km/h (1 Bft) 91 %
23.11.2014 21:20 4,2 C 4,2 C 4,2 C 92 % 1019,7 hPa 0,0 l/m 0,2 km/h (0 Bft) NW 325 0 min 0,000 mm 0 W/m 3,0 C 4,2 C 3,2 km/h (1 Bft) 100 %
23.11.2014 21:30 4,2 C 4,2 C 4,2 C 92 % 1019,7 hPa 0,0 l/m 0,0 km/h (0 Bft) NW 315 0 min 0,000 mm 0 W/m 3,0 C 4,2 C 3,2 km/h (1 Bft) 99 %
23.11.2014 21:40 4,2 C 4,2 C 4,2 C 92 % 1019,7 hPa 0,0 l/m 0,0 km/h (0 Bft) NW 315 0 min 0,000 mm 0 W/m 3,0 C 4,2 C 3,2 km/h (1 Bft) 88 %
23.11.2014 21:50 4,2 C 4,2 C 4,2 C 92 % 1019,9 hPa 0,0 l/m 0,0 km/h (0 Bft) N 0 0 min 0,000 mm 0 W/m 3,0 C 4,2 C 0,0 km/h (0 Bft) 100 %
23.11.2014 22:00 4,2 C 4,2 C 4,2 C 92 % 1019,8 hPa 0,0 l/m 0,0 km/h (0 Bft) NW 315 0 min 0,000 mm 0 W/m 3,0 C 4,2 C 1,6 km/h (1 Bft) 100 %
23.11.2014 22:10 4,3 C 4,2 C 4,3 C 92 % 1019,8 hPa 0,0 l/m 0,0 km/h (0 Bft) NW 315 0 min 0,000 mm 0 W/m 3,1 C 4,3 C 3,2 km/h (1 Bft) 100 %
23.11.2014 22:20 4,3 C 4,3 C 4,3 C 92 % 1019,9 hPa 0,0 l/m 0,0 km/h (0 Bft) N 0 0 min 0,000 mm 0 W/m 3,1 C 4,3 C 0,0 km/h (0 Bft) 100 %
23.11.2014 22:30 4,3 C 4,3 C 4,3 C 92 % 1019,6 hPa 0,0 l/m 0,0 km/h (0 Bft) NW 315 0 min 0,000 mm 0 W/m 3,1 C 4,3 C 1,6 km/h (1 Bft) 100 %
23.11.2014 22:40 4,3 C 4,3 C 4,3 C 92 % 1019,5 hPa 0,0 l/m 0,0 km/h (0 Bft) NW 315 0 min 0,000 mm 0 W/m 3,1 C 4,3 C 3,2 km/h (1 Bft) 100 %
23.11.2014 22:50 4,4 C 4,3 C 4,4 C 92 % 1019,7 hPa 0,0 l/m 0,0 km/h (0 Bft) NW 315 0 min 0,000 mm 0 W/m 3,2 C 4,4 C 1,6 km/h (1 Bft) 100 %
23.11.2014 23:00 4,4 C 4,4 C 4,4 C 91 % 1019,9 hPa 0,0 l/m 0,0 km/h (0 Bft) NW 315 0 min 0,000 mm 0 W/m 3,1 C 4,4 C 3,2 km/h (1 Bft) 100 %
23.11.2014 23:10 4,5 C 4,4 C 4,5 C 91 % 1019,8 hPa 0,0 l/m 0,0 km/h (0 Bft) NW 315 0 min 0,000 mm 0 W/m 3,2 C 4,5 C 3,2 km/h (1 Bft) 100 %
23.11.2014 23:20 4,5 C 4,4 C 4,5 C 91 % 1019,8 hPa 0,0 l/m 0,0 km/h (0 Bft) NW 315 0 min 0,000 mm 0 W/m 3,2 C 4,5 C 1,6 km/h (1 Bft) 100 %
23.11.2014 23:30 4,6 C 4,5 C 4,6 C 91 % 1019,8 hPa 0,0 l/m 0,0 km/h (0 Bft) NW 315 0 min 0,000 mm 0 W/m 3,3 C 4,6 C 1,6 km/h (1 Bft) 100 %
23.11.2014 23:40 4,6 C 4,6 C 4,6 C 92 % 1019,8 hPa 0,0 l/m 0,0 km/h (0 Bft) NW 315 0 min 0,000 mm 0 W/m 3,4 C 4,6 C 3,2 km/h (1 Bft) 100 %
23.11.2014 23:50 4,6 C 4,6 C 4,6 C 92 % 1019,8 hPa 0,0 l/m 0,0 km/h (0 Bft) NW 315 0 min 0,000 mm 0 W/m 3,4 C 4,6 C 3,2 km/h (1 Bft) 100 %
_ Min-Zeit 08:00 08:00 07:40 15:10 17:30 - 00:00 - - - - - 08:10 08:10 01:40 21:40
Minimum _ 3,0 C 3,0 C 3,1 C 83 % 1019,4 hPa - 0,0 km/h (0 Bft) - - - - - 1,7 C 3,0 C 0,0 km/h (0 Bft) 88 %
_ Max-Zeit 15:10 15:10 15:10 11:50 10:00 00:00 12:10 - - 10:30 12:00 11:20 15:00 15:10 17:01 00:00
Maximum _ 10,7 C 10,6 C 10,7 C 92 % 1023,1 hPa 0,0 l/m 1,6 km/h
N-NW (1 Bft)
- - 10 min 0,102 mm 315 W/m 8,0 C 10,7 C 8,0 km/h
O-NO (2 Bft)
100 %
Durchschnitt _ 5,3 C 5,3 C 5,4 C 90 % 1021,3 hPa #0,0 l/m 0,1 km/h (0 Bft) N-NW - #3:20 h #0,432 mm 135 W/m 3,9 C 5,3 C 2,5 km/h (1 Bft) 99 %
PRIVATE WETTERSTATION BILLIGHEIM-ALLFELD - www.neckar-odenwald-wetter.de - Holger Sonntag